Starlink 30830

operational
NORAD ID: 58194 Int'l Des: 2023-167 Owner: SPXS Country: US Constellation: starlink
LEOCIRCULAR

关于 Starlink 30830

正在加载描述...

实时位置

正在加载3D地球...

即将过境

高度历史

Altitude vs Time

uPlot chart will show altitude changes over time

两行轨道根数

1 58194U 23167V 26034.24158234 -.00000089 00000-0 84388-5 0 9994
2 58194 43.0038 333.0717 0000761 280.1142 79.9614 15.02536326125774
Epoch: Feb 3, 2026 • Age: 20 hours

当前状态

高度 562.7 km
速度 7.59 km/s
星下点 42.98°N, 89.58°W
发射日期 Oct 30, 2023
运行时间 2.2 years
类型 internet

技术详情

分类 Payload
质量 730.00 kg
干质量 700.00 kg
总质量 730.00 kg
长度 0.30 m
直径 4.10 m
跨度 29.00 m
形状 Box + pan
制造商 SPXS
平台类型 Starlink V2M
阶段状态 In Orbit
所有者/国家 SPXS/US

大型星座

Loading constellations...